Home   Weather   Wailuku   Past weeks
Flag for USA

Past Weather in Wailuku, Hawaii, USA — Yesterday and Last 2 Weeks

Now
82 °F

Scattered clouds.


Feels Like: 86 °F
Forecast: 88 / 74 °F
Wind: 16 mph from Northeast

Location: Kahului Airport

Current Time: Jul 21, 2019 at 9:18:46 am

Latest Report: Jul 21, 2019 at 7:54 am


Visibility: 10 mi

Pressure: 29.96 "Hg

Humidity: 67%

Dew Point: 70 °F

Location of WailukuLocation

Past Weather in Wailuku — Graph

°F

Wailuku Temperature Yesterday

Maximum temperature yesterday: 90 °F (at 12:54 pm)
Minimum temperature yesterday: 77 °F (at 4:54 am)
Average temperature yesterday: 81 °F

High & Low Weather Summary for the Past Weeks

 TemperatureHumidityPressure
High93 °F (Jul 11, 12:54 pm)94% (Jul 8, 3:10 am)30.07 "Hg (Jul 8, 3:10 am)
Low68 °F (Jul 15, 2:54 am)33% (Jul 11, 12:54 pm)29.91 "Hg (Jul 12, 3:54 pm)
Average82 °F64%29.99 "Hg
* Reported Jul 6 7:54 am — Jul 21 7:54 am, Wailuku. Weather by CustomWeather, © 2019

Note: Actual official high and low records may vary slightly from our data, if they occured in-between our weather recording intervals... More about our weather records

Advertising

Wailuku Weather History for the Previous 24 Hours

Scroll right to see more
 ConditionsComfort  
Time TempWeatherWind HumidityBarometerVisibility
7:54 am
Sun, Jul 21
82 °FScattered clouds.16 mph67%29.96 "Hg10 mi
6:54 am79 °FPassing clouds.12 mph74%29.96 "Hg10 mi
5:54 am78 °FPassing clouds.15 mph76%29.93 "Hg10 mi
4:54 am77 °FClear.14 mph79%29.93 "Hg10 mi
3:54 am77 °FClear.14 mph79%29.93 "Hg10 mi
2:54 am77 °FClear.16 mph79%29.94 "Hg10 mi
1:54 am78 °FClear.20 mph79%29.95 "Hg10 mi
12:54 am78 °FClear.15 mph79%29.97 "Hg10 mi
11:54 pm
Sat, Jul 20
78 °FClear.13 mph82%29.98 "Hg10 mi
10:54 pm78 °FClear.15 mph82%30.00 "Hg10 mi
9:54 pm77 °FPassing clouds.14 mph85%30.00 "Hg10 mi
8:54 pm77 °FPassing clouds.12 mph82%29.99 "Hg10 mi
7:54 pm79 °FLight rain. Passing clouds.12 mph77%29.99 "Hg5 mi
6:54 pm79 °FScattered clouds.13 mph74%29.97 "Hg10 mi
5:54 pm81 °FScattered clouds.16 mph69%29.95 "Hg10 mi
4:54 pm84 °FScattered clouds.18 mph61%29.94 "Hg10 mi
3:54 pm86 °FScattered clouds.20 mph57%29.94 "Hg10 mi
2:54 pm88 °FScattered clouds.22 mph54%29.95 "Hg10 mi
1:54 pm89 °FScattered clouds.24 mph50%29.95 "Hg10 mi
12:54 pm90 °FScattered clouds.23 mph47%29.95 "Hg10 mi
11:54 am87 °FScattered clouds.28 mph59%29.98 "Hg10 mi
10:54 am88 °FScattered clouds.28 mph54%29.99 "Hg10 mi
9:54 am86 °FScattered clouds.22 mph59%29.99 "Hg10 mi
Weather by CustomWeather, © 2019

See weather overview